GFSSE_con_sbcape_276.txt.gz
CAPE
444 1095 2668 2256 1692 1418 1427 1754 1854 1975 2109 2304 1944 2251 1934 1776 1641 1689 1710 1580 1570 1778 1670 1390 1600 1388 1588 2039 1994 2117 2266 2328 2298 2310 2136 1923 2227 2246 2330 2120 1530 1338 2303
506 1255 2917 2483 1742 1765 1689 1795 2220 2240 2106 2166 2036 1981 1937 1837 1821 1675 1545 1700 1825 1768 1740 1947 2019 1827 1289 1664 2053 2144 2271 2222 1865 1967 1971 1733 1710 1729 1946 2049 2095 2037 2158
909 1881 2517 2673 2412 2125 2428 2147 2210 2212 1745 2153 1986 1804 1703 1666 1597 1981 1379 1711 1835 1891 1777 1781 1770 1743 1924 1775 1422 2021 2219 2211 2237 2159 2113 1518 1420 1779 2079 2088 2162 2162 2082
1451 1823 2174 2713 2684 2260 2081 2354 2233 2186 960 1699 2020 1901 1675 1932 1777 1995 1816 1703 1799 1767 1799 1800 1898 1861 1828 1922 1828 1598 1505 1526 2012 1893 1210 1271 1299 2064 2042 2185 1652 1918 2111
1310 1748 2047 2998 2949 2341 2045 2222 1662 2005 1591 2412 2217 2361 2167 2097 2151 2045 1923 1923 1746 1756 1714 1880 1735 1663 1604 1685 1763 1419 1456 503 281 79 179 611 857 1626 1747 1686 1913 1925 1448
1138 1607 2692 3022 2211 2351 2412 1917 2161 2072 1849 1600 1731 1486 1468 1608 1476 1603 1953 1941 1773 1874 1777 1636 1643 1790 1719 1853 1640 1404 1263 1206 1448 898 782 789 1294 1821 2195 2050 2213 1739 1922
1177 1861 2091 2880 3068 2650 2304 2202 2335 2304 2446 2201 1885 1684 2125 2019 1942 2010 1505 1112 1494 1460 1800 1998 1879 1668 1186 1038 973 885 944 1103 921 1015 1060 1160 1441 2411 1891 2042 2006 2158 1962
1272 1659 2057 2857 3166 2995 2173 2295 2287 2118 1931 1953 2119 2112 1421 1385 1745 1776 1416 1009 677 964 1212 1884 1777 1699 1601 1324 785 567 1051 1384 284 614 785 973 2039 2397 2151 2091 1973 1667 1957
1413 1644 1716 1735 2378 2338 2781 2415 2597 2358 1874 1770 1574 1559 1898 2022 1987 2059 1750 1617 1386 656 532 941 1144 1671 1558 1542 1354 1069 775 1327 530 0 460 1012 2744 2503 2086 1963 1913 2046 1932
1218 1611 1649 1622 1774 1835 1951 2553 2086 1642 1456 1933 1863 1920 1693 1256 1300 1273 1969 1813 1499 1360 1388 1066 1065 1356 1618 1680 1646 1488 1031 1105 471 189 19 972 2554 2165 1946 1807 1842 1926 1764
1114 1190 1239 1265 1196 1374 1347 1679 2415 1836 2372 2244 1939 2014 2598 1233 1107 649 1118 1412 1191 1218 1312 1394 1369 1363 1500 1608 1612 1602 1535 466 128 255 442 1292 2242 1895 1944 1940 1848 1910 1808
901 919 939 1042 1055 984 1369 1036 1258 1282 1581 1229 1033 1062 1103 665 369 212 702 824 58 18 120 635 1064 935 944 753 850 1198 717 501 184 90 514 1573 2312 2149 1988 1974 1858 1786 1998
530 1128 1209 976 864 659 817 705 784 791 884 808 685 659 724 515 451 897 511 67 12 26 0 47 131 336 142 203 291 132 364 372 37 12 217 1820 1888 1973 1925 2058 1982 1850 1819
612 878 1097 1154 989 533 548 654 907 768 699 645 753 484 406 662 373 360 94 8 15 8 1 12 27 49 113 44 7 0 81 247 106 0 140 1454 1314 2246 1746 1767 1892 2153 2019
599 721 522 576 615 645 454 551 551 621 651 495 376 506 631 535 293 185 118 70 69 5 0 0 16 22 36 29 27 31 80 182 145 126 16 750 700 896 1759 1233 2056 1816 2198
234 344 260 225 88 265 529 328 353 362 330 306 195 97 741 577 402 248 103 67 105 95 24 9 67 63 63 105 160 95 123 60 33 93 124 415 1053 1335 1623 1418 2010 1830 2023
0 27 95 77 221 448 377 426 242 234 456 504 332 170 179 712 451 418 203 83 113 121 197 97 64 62 111 162 196 156 280 197 88 38 71 151 561 1889 2005 1386 1860 2393 1989
86 103 118 289 266 236 216 499 408 126 79 215 389 432 418 699 628 447 213 66 80 147 159 127 121 104 67 56 67 161 436 222 204 256 100 113 109 208 975 1451 1572 1558 1890
146 167 151 582 358 469 494 582 658 758 543 364 737 666 509 301 106 681 469 250 163 250 289 343 189 195 205 137 83 87 203 267 175 92 69 188 140 180 153 798 1461 1515 1718
237 155 3 321 791 973 1048 1182 1185 947 1063 1090 907 794 557 71 1 0 264 282 335 118 535 444 499 193 194 206 208 267 138 147 62 5 3 22 77 143 221 238 455 794 1754
78 111 48 60 190 1071 722 1210 1253 1410 1141 661 709 224 617 217 547 477 291 227 82 262 306 325 262 476 379 287 306 235 206 193 146 65 18 6 10 99 202 163 180 396 552
188 30 36 73 39 1263 1253 905 1376 1239 938 209 735 225 346 443 150 122 165 249 282 187 178 364 616 393 332 99 205 23 114 82 145 167 99 64 103 191 184 165 237 312 256
290 240 118 102 79 324 1707 1347 1501 986 435 327 299 353 375 375 156 131 95 284 209 394 616 544 356 379 258 143 91 118 34 41 129 233 254 144 196 229 260 151 219 297 255
376 662 621 297 197 644 1374 1813 1231 1104 917 766 319 152 379 330 215 244 845 580 398 288 493 431 461 359 159 104 50 138 43 38 170 58 84 135 72 180 299 174 225 190 381
845 956 902 458 484 1425 1837 1604 1185 1341 1119 950 826 683 729 891 336 689 609 405 616 527 451 369 290 211 178 73 13 71 158 95 74 176 194 117 59 79 169 269 171 155 176
1538 1749 1588 853 2312 2327 1709 1904 1490 1306 1315 1117 703 466 228 218 193 154 214 437 246 178 183 289 219 149 119 2 135 164 145 89 98 100 120 132 64 113 98 263 316 260 140

GFSSE_con_sbcape_279.txt.gz
CAPE
441 1178 2470 1304 1290 1629 1762 2070 1833 1730 1833 2168 2010 1544 1303 1566 1793 1818 1565 1425 1489 1528 1424 1347 1336 1625 1668 1854 1810 1974 1755 1582 2208 2000 1913 2211 2240 2393 2375 1691 1499 1992 2132
657 1503 2402 1857 1426 1615 1855 2180 2151 2226 1649 1944 1987 1618 1489 1477 1521 1542 1467 1444 1551 1612 1563 1725 1531 877 1735 1762 1727 1955 1752 1741 1898 1819 1727 1856 1996 1967 2217 1907 1927 2110 2111
842 1742 1833 2178 1915 1563 1884 2298 2003 2318 1736 1910 1989 1830 1706 1689 1585 1363 1645 1735 1630 1716 1762 1695 1800 1568 1166 1848 1868 1942 1899 1774 1833 1795 1736 1254 1523 2180 2112 2103 2173 2109 2189
1257 1957 1650 2394 2567 1819 2295 2235 1858 1953 2139 1824 1722 1544 1681 1581 1814 1403 1838 1805 1770 1706 1788 1608 1606 1868 1724 1345 1320 1856 2022 2016 1955 1852 1171 1158 1342 2162 2003 1967 2022 2246 2062
1682 1843 1790 2517 2642 1926 2367 2320 1670 1032 1783 1941 1693 1719 1880 1825 1907 1809 1653 1839 1754 1753 1727 1867 1788 1728 1756 1624 1602 1377 1199 1467 1710 435 454 645 1393 1851 1983 1704 1721 2141 1321
1566 1728 2339 2363 2125 2008 2325 1797 1855 1748 2439 2153 2374 2062 1970 2114 2038 1728 1839 1459 1832 1770 1865 1713 1681 1622 1635 1571 1615 1370 1386 1179 713 262 303 803 846 1477 1698 1683 1968 1227 1800
1494 1710 2016 2757 2655 2183 1853 2047 2091 1861 1622 1657 1560 1282 1553 1335 1394 1512 1860 1868 1594 1657 1655 1561 1725 1766 1715 1238 1006 938 961 1083 888 677 686 1101 1189 2290 2043 2062 1944 1862 1959
1601 1798 1959 2396 2768 2479 1911 2396 2315 2512 2107 1865 1679 2030 2066 1997 1926 1725 1095 894 1216 1213 1905 1798 1790 1343 871 938 501 521 1043 1109 726 734 809 1010 1533 2070 1979 2143 2131 2143 2060
1628 1717 1906 2070 1996 2238 2320 2404 2190 1898 2154 2205 2343 1642 1395 1475 1777 1721 1465 1036 688 700 1067 1636 1639 1610 1714 1373 1132 766 765 1541 33 255 672 779 2227 2246 2031 2169 1960 1563 1965
1444 1525 1427 1676 2034 1709 1949 2166 2797 2129 1567 1513 1451 1649 1991 1907 1937 1994 2073 1629 1598 1018 561 709 952 1213 1645 1618 1681 1388 953 1230 547 0 30 771 2321 2372 2146 2023 1872 2050 1806
1305 1484 1367 1371 1342 1484 1603 2247 2438 2094 1597 1985 1793 1980 1669 786 782 995 1354 1476 923 1168 1336 1376 1290 1275 1547 1665 1743 1611 1418 423 107 281 11 1021 2278 2082 1786 1715 1853 1879 1840
1079 1291 1209 1129 1155 1259 1605 1479 1701 1134 1412 1627 1621 1504 1684 1053 827 758 921 1102 822 375 498 1213 1388 1384 1244 840 838 1216 695 554 249 105 238 812 1824 1689 1787 1639 1853 1930 1847
873 1307 1199 1079 995 1025 1190 851 866 958 1032 983 745 686 876 804 478 708 338 467 140 147 8 61 289 502 223 217 446 331 248 316 142 16 68 964 1615 1382 1877 1889 1825 1842 1786
536 928 1096 1090 944 677 723 594 707 659 647 704 669 510 437 682 385 410 367 232 51 3 0 0 1 20 57 105 110 124 53 55 165 14 0 515 2002 1664 1619 1887 1807 1404 1625
398 668 829 774 706 604 316 417 648 640 649 563 524 547 480 348 459 314 238 102 23 22 0 0 0 1 13 52 38 25 25 69 159 106 7 288 1541 1634 2257 1964 1798 1685 1446
471 674 1009 994 821 604 296 345 344 459 491 415 347 250 481 465 333 265 213 135 50 37 21 4 0 21 12 28 53 76 85 73 97 144 83 38 908 1434 1459 1301 1525 1683 1526
561 587 458 622 462 313 368 315 262 255 311 326 321 213 129 474 454 418 209 86 57 47 50 40 11 19 58 60 105 176 156 166 139 58 78 91 164 1314 1493 1150 1418 1693 2100
138 161 168 265 134 152 360 353 297 215 200 301 369 269 225 202 535 424 252 189 26 50 55 48 55 81 59 31 78 119 149 205 281 112 37 66 97 287 800 1740 1555 1733 1625
36 104 44 95 175 175 176 312 279 235 98 102 420 545 630 555 557 522 374 230 16 49 114 117 145 70 64 72 62 69 102 187 204 401 87 74 63 133 102 427 1554 1645 1290
81 122 165 228 196 236 303 376 567 492 624 942 811 815 803 39 5 0 5 149 86 71 57 55 295 75 109 109 252 347 169 144 133 103 30 53 84 96 123 98 170 419 1392
217 60 211 356 396 587 691 1135 1056 1121 999 769 764 614 681 403 237 560 327 274 94 58 4 79 230 352 325 243 324 387 228 157 131 95 61 12 5 20 54 110 105 147 249
138 104 0 225 365 808 723 739 1116 996 999 157 426 335 253 634 532 139 146 229 298 306 89 72 211 231 164 92 240 105 153 55 172 197 140 80 25 20 40 101 107 97 161
52 12 0 0 11 1010 1151 960 1241 662 489 432 482 556 301 338 186 196 160 182 144 60 199 347 299 173 148 73 71 87 57 98 0 74 131 120 73 38 78 123 93 67 108
225 98 22 0 0 131 1365 1349 1333 834 855 646 499 137 124 216 204 201 571 210 170 160 240 215 410 201 82 32 31 67 39 19 103 48 35 154 66 66 92 116 176 111 129
433 343 359 223 55 263 814 1525 1170 1031 703 795 601 591 739 373 360 458 382 246 227 149 100 124 150 114 57 13 62 106 118 77 61 95 126 103 53 37 37 131 184 187 154
588 709 689 521 285 545 1011 1545 1167 1105 1135 720 304 223 102 41 23 37 11 12 4 0 0 0 46 84 69 0 1 100 28 180 154 70 93 111 61 50 63 78 153 165 137

GFSSE_con_sbcape_285.txt.gz
CAPE
199 633 1837 1619 1567 1399 1540 1845 1740 1692 1711 1745 1713 1397 1394 901 951 1256 1276 1428 1609 1487 1387 1306 1252 1333 1436 1361 1601 1730 1950 2039 2172 2248 2357 2412 2553 2280 1902 1583 1344 668 1416
188 505 1852 2045 1810 1603 1533 1746 1725 1763 1618 1535 1478 1437 1390 1389 1492 1448 1475 1471 1463 1338 1355 1424 1485 1663 1516 1650 1456 1568 2098 1930 1909 2022 1981 2342 2261 1937 1822 2314 1871 799 1983
330 582 1178 2286 1911 1803 1695 1785 1968 1575 1484 1412 1385 1410 1531 1575 1485 1372 1373 1412 1624 1558 1608 1089 962 1814 1580 1960 1447 1444 1776 1799 1739 1817 1999 1722 1916 1855 1848 2397 2211 1862 1855
726 468 875 2295 2343 2093 2144 1649 1963 1776 1578 1533 1432 1372 1409 1421 1438 1395 1470 1421 1576 1719 1628 1604 1407 1274 1777 1880 1749 1672 1844 1800 1941 1865 1586 1566 1648 2106 2282 2148 2171 2180 2090
934 318 986 2135 2294 2122 1917 2087 1590 1928 1981 1842 1579 1569 1798 1413 1413 1600 1724 1669 1704 1617 1453 1634 1702 1462 1228 1289 1576 1866 2002 1989 1834 1085 1599 1729 1814 2019 2126 2296 2117 2126 1866
422 438 1790 1859 1971 2271 2010 1814 2128 1884 1685 1414 1705 1684 1714 1588 1103 1625 1766 1815 1602 1621 1538 1490 1671 1506 1444 1281 1230 976 1316 1430 964 1010 1410 1720 1768 2184 1811 1558 2094 1518 1709
493 653 1636 2641 2184 2344 2106 938 1578 1994 1580 1654 1988 2019 1746 1671 1763 1855 1387 1704 1560 1653 1504 1473 1503 1500 1439 1084 1313 1257 1048 1079 1383 1198 1032 1037 1249 1580 1382 1968 1798 1248 1867
658 916 1699 2363 2275 2071 1855 1450 2085 2122 2014 1848 1645 1350 1414 1672 1516 1872 1795 1555 1380 1444 1436 1569 1381 1559 1243 985 783 574 1051 1432 905 1309 1296 1145 1116 1856 1942 2031 1266 1887 1894
874 1302 1444 1338 2162 1652 1927 1695 1746 1495 1505 1770 1426 1785 1790 1711 1682 1325 925 688 773 953 1221 1365 1648 1147 780 754 657 555 718 1366 1266 1134 1122 1282 1466 1929 1643 1806 1857 1913 1957
1151 1591 1511 1842 1626 1596 1995 2412 2485 2005 2239 2068 1588 1651 1747 1866 1868 1657 1397 1060 1018 728 657 939 1339 1510 1388 1416 1314 1317 860 1041 941 1033 1055 1031 1364 1838 1869 1795 1854 1825 1865
1342 1317 1312 1609 1597 1711 2212 2046 1999 1872 1696 1646 1903 1888 1722 1884 1551 1391 1649 1225 409 379 1065 1007 872 854 928 1185 1451 1582 1539 676 568 792 639 686 1238 1816 1940 1956 1787 1805 1592
1254 1406 1308 1395 1358 1416 1624 1983 2685 1832 988 1082 1283 1696 2262 1897 1493 1354 1033 467 423 505 248 341 1112 1291 1378 595 1007 1291 915 930 923 295 551 393 435 1338 1752 1915 2009 1967 1690
781 972 1230 1553 1791 1361 1335 1748 2277 2065 1582 1208 2329 2214 2224 1166 1679 1329 1834 273 617 629 789 169 232 316 376 1208 775 867 433 789 473 615 382 549 827 1288 1541 2123 1741 1685 1921
794 756 1040 1309 2076 1784 1169 1782 2272 1960 1707 1585 1381 2381 1986 1429 1046 1011 801 1097 1263 1296 292 362 213 193 216 257 331 231 202 293 692 363 325 862 850 968 1356 1445 2090 1974 1516
582 702 929 1338 1867 2269 1908 1224 1652 1906 1707 1247 1439 1532 1499 1188 845 1032 1178 852 1175 403 146 37 38 64 258 247 189 244 295 217 345 580 593 590 864 1074 893 1693 1705 1876 1482
665 433 499 990 1308 1598 1825 1425 1099 1263 1216 1404 1063 995 1313 1324 1078 1158 1334 1106 591 139 133 91 313 370 452 250 211 417 328 189 199 383 561 396 847 1205 1233 1433 1624 2080 1817
940 429 388 899 1075 1380 1521 1491 1076 947 684 807 1080 1338 1230 1150 1163 1482 1499 1535 1486 1364 724 104 72 415 636 672 339 818 397 335 574 234 193 294 601 1056 1308 1187 1306 1951 2315
673 360 496 528 880 1169 1155 1125 913 836 785 851 875 1242 1449 1500 1543 1578 1522 1506 1431 1250 996 725 647 755 770 719 972 717 314 357 266 563 616 221 248 441 1088 1724 1919 1900 2079
341 331 508 524 387 710 972 894 784 866 1155 1301 1273 1211 1518 1605 1490 1526 1456 1164 1185 865 760 954 831 866 648 416 649 691 652 760 546 328 593 862 300 318 419 789 1375 1757 1197
909 812 868 908 1071 1191 1014 1125 1150 1310 1318 1273 1300 1311 1313 1343 1591 936 1089 1524 1416 679 1074 827 660 827 653 931 747 617 523 713 1075 1048 513 648 359 336 277 627 794 641 1516
957 1105 766 1019 1191 1102 1038 796 1054 1309 1846 1704 1800 2168 2072 1791 1225 1718 1190 1353 1391 901 1068 915 1017 1190 1199 1121 797 657 618 950 1047 1042 1195 693 737 702 634 602 809 677 709
870 961 1102 838 925 997 1026 1151 1350 1629 1961 1982 2237 2041 1611 1389 1673 1185 1255 1170 1403 1225 1198 1148 1189 1086 942 942 821 766 478 345 645 948 1059 950 776 858 626 643 671 791 704
460 785 899 1106 1029 956 1042 1466 1913 2118 1750 1803 1753 1537 1341 1486 1300 1437 1349 1299 1058 1063 864 1074 1033 916 752 730 373 247 667 324 255 267 610 1104 949 930 718 441 625 771 842
332 511 817 1038 1104 1207 1397 1520 2078 2931 2806 2486 1478 1224 1598 1458 1312 1426 1627 1044 849 564 652 650 892 936 918 442 435 359 408 458 275 175 639 1107 1031 949 938 638 394 446 750
345 463 648 949 1195 1508 1653 1935 1969 2304 2343 1843 1990 1771 1410 1474 1568 1408 1053 678 630 274 472 618 330 450 490 274 225 418 366 483 628 221 132 628 1006 1337 1065 750 391 551 796
427 534 673 948 1269 1490 2165 2138 2386 2396 2608 2176 1803 1902 1592 1174 660 582 504 336 211 165 300 0 6 37 88 203 187 340 358 368 336 476 325 301 151 633 919 321 411 443 789

GFSSE_con_sbcape_291.txt.gz
CAPE
868 1483 1983 1795 1783 1855 1744 1585 1178 1220 1117 1164 943 683 1042 1209 1233 1189 1243 1463 1360 1179 1270 1455 1489 1503 1595 1818 1887 1708 1806 2079 2066 2339 2237 2524 2561 2304 1963 1944 2067 1737 1862
762 1354 2246 2068 1910 1949 1870 1809 1288 1365 1071 1011 736 692 928 1159 1185 1331 1414 1387 1408 1380 1526 1428 1521 1419 1452 1544 1821 1755 1882 1853 2078 2175 2370 2175 1716 1308 1362 1293 1824 1797 2328
615 545 1229 2287 1827 1960 1863 1797 2019 1860 1674 1615 1574 1258 1275 1389 1333 1273 1195 1390 1529 1584 659 1388 1760 1748 1374 1459 1734 1655 1792 1746 1831 1958 1427 1456 1201 2200 1993 1187 2434 2344 2204
446 434 1386 2343 2052 1963 1685 1996 1907 1876 1801 1661 1623 1702 1567 1297 1248 1353 1630 1495 1579 1511 1422 864 1888 1801 1502 1333 1476 1553 1520 1734 1643 1435 1584 1325 851 1996 2077 1800 1919 2264 2186
421 849 1693 2375 2207 1924 1744 1685 1623 1540 1456 1412 1433 1548 1396 1517 1449 1526 1411 1163 1615 1429 1723 1421 1143 1184 1593 1781 1643 1709 1861 1370 1267 1392 1765 1400 1228 2083 2056 2083 1830 1787 1929
451 1138 2210 2351 2297 1826 2117 2117 1995 2049 1867 1613 1712 1722 1384 1522 1649 1607 1520 1595 1489 1555 1505 1505 1260 1412 1193 1265 1624 1664 1074 1169 1267 1520 1740 1422 978 2088 2049 1776 1838 2054 1794
491 1029 1971 2730 2083 2354 1829 1963 2197 1897 1391 1896 1362 1801 1561 1122 1456 1446 1462 1345 1643 1372 1319 1435 1356 1183 1172 1134 995 899 892 1127 1562 836 618 909 1884 1774 1284 2002 1678 1634 1726
400 281 1462 2523 2327 1910 2200 2014 2117 1510 1354 1807 1820 1625 1590 1617 1516 1133 1139 1312 1404 1425 942 1157 1374 1380 918 1071 868 564 803 1040 1111 1522 1102 1368 1824 1274 1376 1764 1188 1428 1803
352 401 656 1900 2505 1777 897 1742 2046 1770 2086 2153 1566 1356 1692 1169 1469 1363 1240 1343 769 876 1389 1319 1319 1063 833 656 385 312 402 802 1308 1222 993 1172 2314 1868 1551 1578 938 1659 1632
476 754 697 1463 1549 772 659 2162 2264 1771 1570 1313 1254 1870 1667 1722 1599 1326 794 532 484 460 472 1205 1313 1262 737 748 628 777 793 886 771 1150 495 812 2185 1606 1825 1492 1503 1673 1590
564 779 668 945 1144 673 851 1243 1838 1379 1790 1848 1645 1606 1353 727 1229 1224 892 127 291 340 324 587 658 666 844 1182 1110 1093 1385 519 604 225 868 1683 1738 1269 1812 1867 1581 1751 1773
705 540 567 400 587 395 880 1939 1662 909 1112 1212 957 1985 2250 1346 652 678 463 338 196 375 434 443 626 1120 1354 216 741 1273 385 210 302 294 656 1896 1529 1242 1386 1808 1876 1624 1618
738 624 578 425 592 279 1266 679 706 592 609 624 975 1179 1256 945 2119 275 752 927 830 259 992 1142 703 724 732 477 592 991 474 474 305 95 813 1889 1217 987 1053 1466 2082 1698 1582
613 624 665 675 816 544 488 391 1004 945 356 581 951 1361 2703 2113 1256 663 1261 2243 2335 1550 1097 159 138 207 1050 577 487 333 179 124 426 424 477 1868 1583 886 972 1482 1738 1970 1797
459 531 555 826 1387 1120 787 487 643 455 561 1422 1479 1772 2438 2115 1573 1806 1642 1408 1302 1365 1018 834 815 242 193 359 832 648 186 223 170 33 174 1325 1808 1523 1013 1183 1623 1783 2029
237 301 303 580 1359 1461 1363 1000 873 854 943 1266 1801 2227 1904 1964 2440 2435 2168 2040 2286 2212 1710 1525 1502 585 572 1752 1796 842 391 312 737 263 2 0 882 1617 1569 1140 1506 1624 1739
251 213 199 298 789 1553 1508 1440 1156 892 733 983 953 1336 1765 1990 2603 2218 2491 2840 2830 1740 2401 2194 1619 915 299 575 1455 1004 733 656 783 1108 324 61 32 1432 1670 1689 1973 1976 2335
827 496 216 96 296 1029 1137 1387 1441 1043 902 1135 1700 1602 2110 2000 1858 2438 2089 1828 2434 1630 1450 2207 2220 1963 2091 1774 1640 1876 1700 1710 1343 1426 1118 752 213 91 215 1811 1948 2156 2030
1471 1157 456 254 177 596 967 1293 1645 1454 1512 1209 2341 2118 2205 2235 1847 2007 1656 2207 2352 1630 1666 1627 2188 2071 2156 1845 1736 2279 1099 1106 1048 917 842 848 967 366 271 196 1577 1967 1840
1336 1641 1196 619 688 1100 1267 1424 1304 1208 1320 2007 2850 2456 2387 2743 2300 2178 1789 2027 1813 961 1646 2491 1667 2001 2042 1899 931 721 1039 933 1058 622 573 770 592 963 829 393 266 707 1564
1199 1505 1158 1105 1625 1374 1523 1661 1468 1397 2239 2545 2618 2562 2023 2155 2165 2407 2235 2025 1578 1086 1104 1189 894 1127 466 970 696 149 158 215 186 1556 1454 1707 1370 986 836 915 735 488 1199
1157 1738 1702 1701 1901 1746 1497 1614 1627 2827 2532 2879 2449 2837 2250 2003 1947 2029 1983 1721 1837 347 1165 910 833 204 108 1455 404 169 127 970 1293 968 211 1550 1158 1274 982 1273 1019 1361 791
1105 1306 1955 2399 2735 2460 2369 2042 1939 2126 2763 1574 1430 1840 2020 1763 1890 2054 1983 1625 801 719 68 464 235 1019 525 424 573 1157 805 904 587 819 991 1145 761 908 841 747 938 947 1099
1157 1340 1676 2877 3042 2887 2845 2958 3709 2737 1940 1978 2139 1881 1861 2363 2237 2063 1727 505 185 81 396 480 222 269 815 87 26 634 1359 1067 604 740 1539 1335 1240 1714 1375 1330 770 841 1731
755 1144 1693 2538 3575 3815 3214 3535 2663 3164 2025 1908 1853 2138 2531 2741 2156 1662 310 156 114 27 265 178 89 102 0 3 0 2 75 22 156 598 580 616 1874 2211 1149 1437 1027 1327 697
710 1144 1667 2597 4053 3652 3299 3002 3086 3731 2301 1915 2009 2439 2225 2510 1571 282 246 328 404 672 172 107 151 84 45 85 3 15 0 4 10 8 71 227 648 1217 1404 1726 1340 1047 649